This is the latest recevied weather packets stored in our database for station/object KM7BEO. If no packets are shown the sender has not sent any weather packets the latest 10 day(s).
| Time | Temp. | Humidity | Pressure | Rain* | Wind** | Luminosity | Snow |
|---|---|---|---|---|---|---|---|
| 1777394439 | 10.56° C | 87% | 1021.6 hPa | 0 mm | - | 138 W/m² | - |
| 1777394136 | 10.56° C | 87% | 1021.6 hPa | 0 mm | - | 119 W/m² | - |
| 1777393832 | 10° C | 88% | 1021.4 hPa | 0 mm | - | 108 W/m² | - |
| 1777393530 | 10° C | 88% | 1021.5 hPa | 0 mm | - | 97 W/m² | - |
| 1777393226 | 10° C | 88% | 1021.5 hPa | 0 mm | - | 78 W/m² | - |
| 1777392924 | 10° C | 87% | 1021.5 hPa | 0 mm | - | 81 W/m² | - |
| 1777392624 | 10° C | 87% | 1021.4 hPa | 0 mm | - | 77 W/m² | - |
| 1777392320 | 10° C | 87% | 1021.2 hPa | 0 mm | - | 90 W/m² | - |
| 1777392015 | 10° C | 87% | 1021.3 hPa | 0 mm | - | 132 W/m² | - |
| 1777391710 | 10° C | 87% | 1021.3 hPa | 0 mm | - | 119 W/m² | - |
| 1777391408 | 10.56° C | 87% | 1021.2 hPa | 0 mm | - | 106 W/m² | - |
| 1777391103 | 10.56° C | 87% | 1021.3 hPa | 0 mm | - | 145 W/m² | - |
| 1777390799 | 10° C | 88% | 1021.3 hPa | 0 mm | - | 115 W/m² | - |
| 1777390496 | 10° C | 88% | 1021.3 hPa | 0 mm | - | 112 W/m² | - |
| 1777390193 | 10° C | 88% | 1021.2 hPa | 0 mm | - | 99 W/m² | - |
| 1777389889 | 10° C | 88% | 1021.3 hPa | 0 mm | - | 91 W/m² | - |
| 1777389586 | 10° C | 88% | 1021.1 hPa | 0 mm | - | 81 W/m² | - |
| 1777389283 | 10° C | 87% | 1021 hPa | 0 mm | - | 72 W/m² | - |
| 1777388980 | 10° C | 87% | 1020.9 hPa | 0 mm | - | 70 W/m² | - |
| 1777388677 | 10° C | 87% | 1021.1 hPa | 0 mm | - | 81 W/m² | - |
| 1777388374 | 10° C | 87% | 1021 hPa | 0 mm | - | 88 W/m² | - |
| 1777388074 | 10° C | 87% | 1021 hPa | 0 mm | - | 69 W/m² | - |
| 1777387771 | 10° C | 87% | 1020.9 hPa | 0 mm | - | 58 W/m² | - |
| 1777387467 | 9.44° C | 87% | 1020.8 hPa | 0 mm | - | 50 W/m² | - |
| 1777387161 | 9.44° C | 86% | 1020.8 hPa | 0 mm | - | 40 W/m² | - |
* Rain latest hour (hover to see other rain measurements)
** Current wind speed in m/s (hover to see current wind gust speed)